EW7942 Weather Reports


time (UTC)temp
F
wind
direction
speed
knots
gust
knots
rain 1hr
in
rain 24hr
in
rain mn
in
humidity
%
barometer
mb
20260509084111 62 150 0.0 0.0 0.00 0.00 0.00 89 1014.2
20260509083829 62 150 0.0 0.9 0.00 0.00 0.00 89 1014.3
20260509083600 62 150 0.9 0.9 0.00 0.00 0.00 89 1014.1
20260509082612 62 152 0.0 1.7 0.00 0.00 0.00 89 1014.3
20260509082112 62 151 0.0 1.7 0.00 0.00 0.00 89 1014.6
20260509081612 62 160 0.0 0.9 0.00 0.00 0.00 89 1014.4
20260509081112 62 162 0.0 0.9 0.00 0.00 0.00 89 1014.3
20260509080612 62 162 0.0 0.9 0.00 0.00 0.00 89 1014.5
20260509080112 62 161 0.0 0.9 0.00 0.00 0.00 89 1014.6
20260509075612 62 163 0.0 1.7 0.00 0.00 0.00 89 1014.5
20260509075113 62 170 0.9 1.7 0.00 0.00 0.00 89 1014.5
20260509074611 62 203 0.0 0.9 0.00 0.00 0.00 90 1014.7
20260509074112 61 215 0.0 0.0 0.00 0.00 0.00 90 1014.5
20260509073832 62 216 0.0 0.9 0.00 0.00 0.00 90 1014.6
20260509073110 61 216 0.0 0.9 0.00 0.00 0.00 90 1014.6
20260509072611 62 215 0.0 1.7 0.00 0.00 0.00 90 1014.5
20260509072111 62 216 0.9 1.7 0.00 0.00 0.00 89 1014.6
20260509071613 62 197 0.9 1.7 0.00 0.00 0.00 89 1014.5
20260509071335 62 186 0.0 0.9 0.00 0.00 0.00 90 1014.5
20260509071218 62 213 0.0 0.9 0.00 0.00 0.00 90 1014.8
20260509070113 62 213 0.0 0.9 0.00 0.00 0.00 90 1014.9
20260509070106 62 214 0.9 2.6 0.00 0.00 0.00 90 1014.9
20260509065110 62 159 0.0 2.6 0.00 0.00 0.00 89 1014.7
20260509064834 62 177 0.0 0.9 0.00 0.00 0.00 89 1015.0
20260509064110 62 203 0.0 0.9 0.00 0.00 0.00 90 1014.9
20260509063609 62 212 0.0 0.9 0.00 0.00 0.00 90 1014.9
20260509063109 62 207 0.0 0.9 0.00 0.00 0.00 90 1015.0
20260509062609 62 193 0.0 0.9 0.00 0.00 0.00 90 1014.7
20260509062108 61 191 0.0 0.9 0.00 0.00 0.00 91 1015.1
20260509061828 61 286 0.0 0.9 0.00 0.00 0.00 91 1015.1
20260509061111 61 286 0.9 1.7 0.00 0.00 0.00 91 1015.0
20260509060610 61 286 0.9 1.7 0.00 0.00 0.00 90 1015.0
20260509060111 61 223 0.0 0.9 0.00 0.00 0.00 90 1014.9
20260509055610 62 222 0.0 1.7 0.00 0.00 0.00 89 1014.8
20260509055109 62 206 0.0 1.7 0.00 0.00 0.00 89 1015.2
20260509054610 62 223 1.7 1.7 0.00 0.00 0.00 89 1014.7
20260509054109 62 184 0.0 2.6 0.00 0.00 0.00 89 1015.0
20260509053609 62 346 0.0 2.6 0.00 0.00 0.00 89 1014.9
20260509053109 62 202 0.0 1.7 0.00 0.00 0.00 88 1015.1
20260509052610 62 172 0.0 0.9 0.00 0.00 0.00 88 1015.0
20260509052109 62 173 0.0 1.7 0.00 0.00 0.00 88 1015.0
20260509051609 62 175 0.9 1.7 0.00 0.00 0.00 88 1015.1
20260509051109 62 172 0.9 2.6 0.00 0.00 0.00 88 1015.3
20260509050609 62 175 0.0 2.6 0.00 0.00 0.00 88 1015.0
20260509050110 62 173 0.0 2.6 0.00 0.00 0.00 88 1015.1
20260509045609 62 170 0.0 2.6 0.00 0.00 0.00 88 1015.3
20260509045109 62 171 0.0 1.7 0.00 0.00 0.00 88 1015.0
20260509044827 62 125 0.0 1.7 0.00 0.00 0.00 88 1015.0
20260509044112 62 180 0.0 1.7 0.00 0.00 0.00 88 1015.1
20260509043610 62 116 0.9 1.7 0.00 0.00 0.00 88 1014.9
20260509043328 62 175 0.0 1.7 0.00 0.00 0.00 87 1014.8
20260509043214 62 163 0.9 1.7 0.00 0.00 0.00 87 1015.0
20260509042112 62 214 0.0 1.7 0.00 0.00 0.00 86 1014.9
20260509041610 62 171 0.0 0.9 0.00 0.00 0.00 85 1014.5
20260509041057 63 167 0.0 1.7 0.00 0.00 0.00 85 1014.5
20260509040559 63 168 0.0 1.7 0.00 0.00 0.00 84 1014.4
20260509040256 63 192 0.0 1.7 0.00 0.00 0.00 83 1014.4
20260509040138 63 165 0.9 0.9 0.00 0.00 0.00 84 1014.6
20260509035524 63 160 0.0 2.6 0.00 0.00 0.00 83 1014.4
20260509034547 64 210 0.0 2.6 0.00 0.00 0.00 83 1014.5
20260509034035 64 196 0.0 0.0 0.00 0.00 0.00 82 1014.4